User: anonymous   Login
Location: Vancouver
(49.2500°N, 123.1330°W)
Time: 22:44:09
(UTC-07:00)
Language:

ERS-2 - Orbit

View from above orbital plane
View from above orbital plane
View from above satellite
View from above satellite

Ground track
Ground track

The orbit data is extracted from the following two-line orbital elements,

1 23560U 95021A   16207.91888135 +.00002654 +00000-0 +12993-3 0  9996
2 23560 098.5150 151.5673 0003446 354.8256 005.2939 15.19265156125797
Epoch (UTC): 25 July 2016 22:03:11
Eccentricity: 0.0003446
inclination: 98.5150°
perigee height: 505 km
apogee height: 510 km
right ascension of ascending node: 151.5673°
argument of perigee: 354.8256°
revolutions per day: 15.19265156
mean anomaly at epoch: 5.2939°
orbit number at epoch: 12579

The dashed part of the orbit path shows where the satellite is in the earth's shadow,  

DLR